STARLINK-31692, 59577

Orbit data source: Space-Track

STARLINK-31692, 59577 is a payload satellite owned by SpaceX/Seattle (US) in LEO that was launched on Tue, 23 Apr 2024 UTC via an FALCON 9 launch vehicle from the Air Force Eastern Test Range (AFETR). Payload-class satellites include a variety of spacecraft equipped with specific instruments for various scientific and technological missions. These include communications satellites like Starlink; space stations such as the ISS; scientific satellites like the Hubble; Earth observation satellites from companies like Planet Labs, Umbra, and HawkEye 360; GPS; miniature CubeSats for education and research; and military/defense satellites.

Loading next visibility...
Identifier
59577, 2024-076P
Orbit
LEO
Country
Flag of USUS
Related business
Manufacturer
SpaceX/Seattle
Mission
Operational Commercial Communications
Bus & Motor
STARLINK V2M, Unknown motor
Mass
730 kg wet, ~700 kg dry
Launch date (UTC)
2024-04-23 (2 years ago)
Launch vehicle
FALCON 9
Launch site
Air Force Eastern Test Range (AFETR)
Object type
Payload
Rocket body
Debris
Shape & HBR
Box + 2 Pan, 17.7 m
Radar Cross Section
33.884 m², Large (>1 m²)

Expand to show TLE details & history
Last TLE update: 9 hours ago

TLE from 9 hours ago
0 STARLINK-31692
1 59577U 24076P   25349.81258526 -.00001690  00000-0 -51908-4 0  9997
2 59577  43.0012 122.7604 0001317 269.9372  90.1329 15.27567072 93678
Epoch: 2025-12-15T19:30Z
TLE epoch observation values (Epoch: 2025-12-15T19:30:07.366Z)
Latitude
Longitude
105.52393°
Altitude
482.866 km
Speed
7.626 km/s
True Right ascension
08h 11m 02s
True Declination
0° 00' 00"
Sunlit
Object was in full shadow at epoch
Visualization orbit readout
Latitude
Unknown
Longitude
Unknown
Altitude
Unknown
Speed
Unknown
Apparent Right ascension
Unknown
Apparent Declination
Unknown
Sunlit
N/A
Visualization observer readout
Local Sidereal Time
03:26:41
Azimuth
Unknown
Elevation
Unknown
Doppler factor
Unknown
Orbital elements
Apogee altitude
485.937 km
Perigee altitude
484.129 km
Semi-major axis
6,863.17 km
Eccentricity
0.00013
Inclination
43.0012°
RAAN
122.7604°
Arg. of periapsis
269.9372°
True anomaly
90.14799°
Mean anomaly
90.1329°
Eccentric anomaly
90.14045°
Mean motion
3.8173 °/min
Orbital period
94.31 mins
BSTAR
-0.000051908
Loading maneuver chart data...
Computing Atmospheric mass density...
Loading historical data...
Loading historical data...
Loading historical data...
Loading historical data...
Loading historical data...
Loading historical data...
Loading historical data...

Documentation

Showing up to 5 results
|